Temperature
15 15 15 15 16 16 16 16 17 17 17 17 18 18 18 18 18 18 18 18 18 18 18 18 18 18 18 18 18 18 18 18 18 18 18 18 18 18 18 18 18 17 17
15 15 15 15 15 15 16 16 16 16 17 17 17 17 18 18 18 18 18 18 18 18 18 18 18 18 18 18 18 18 18 18 18 18 18 18 18 18 18 18 18 17 17
14 14 15 15 15 15 15 16 16 16 16 17 17 17 17 18 18 18 18 18 18 18 18 18 18 18 18 18 18 18 18 18 18 18 18 18 18 18 18 18 17 17 17
14 14 14 14 15 15 15 15 15 16 16 16 17 17 17 17 18 18 18 18 18 18 18 18 18 18 18 18 18 18 18 18 18 18 18 18 18 18 18 17 17 17 17
14 14 14 14 14 14 15 15 15 15 16 16 16 17 17 17 17 17 17 18 18 18 18 18 18 18 18 18 18 18 18 18 18 18 18 18 18 18 17 17 17 17 17
13 14 14 14 14 14 14 15 15 15 15 16 16 16 17 17 17 17 17 18 18 18 18 18 18 18 18 18 18 18 18 18 18 18 18 17 17 17 17 17 17 17 17
13 13 13 13 14 14 14 14 14 15 15 15 15 16 16 17 17 17 17 17 17 18 18 18 18 18 18 18 18 18 18 18 18 18 17 17 17 17 17 17 17 17 17
13 13 13 13 13 13 14 14 14 14 15 15 15 15 16 17 17 17 17 17 17 18 18 18 18 18 18 18 18 18 18 18 18 18 17 17 17 17 17 17 17 17 16
12 12 13 13 13 13 13 13 14 14 14 15 14 15 15 16 16 17 17 17 17 17 18 18 18 18 18 18 18 18 18 18 18 18 18 17 17 17 17 17 17 17 16
12 12 12 12 12 13 13 13 13 14 14 14 14 14 14 15 15 16 17 17 17 17 18 18 18 18 18 18 18 18 18 18 18 18 17 17 17 17 17 17 17 17 16
12 12 12 12 12 12 12 13 13 13 13 14 14 14 14 14 15 15 16 16 17 17 17 17 17 18 18 18 18 18 18 18 17 17 17 17 17 17 17 17 17 16 16
12 12 12 12 12 12 12 12 12 13 13 13 13 14 14 14 14 14 15 15 16 17 17 17 17 17 17 17 18 18 18 18 18 17 17 17 17 17 17 17 17 16 16
12 12 12 12 12 12 12 12 12 12 13 13 13 13 13 14 14 14 14 15 15 16 16 17 17 17 17 17 17 17 17 18 17 17 17 17 17 17 17 17 17 16 16
11 11 11 11 12 12 12 12 12 12 12 13 13 13 13 13 13 14 14 14 14 15 15 16 16 17 17 17 17 17 17 17 17 17 17 17 17 17 17 17 16 16 16
11 11 11 11 11 11 12 12 12 12 12 12 12 13 13 13 13 13 13 14 14 14 14 16 16 16 16 16 17 17 17 17 17 17 17 17 17 17 17 16 16 16 16
11 11 11 11 11 11 11 11 11 12 12 12 12 12 12 13 13 13 13 13 13 13 14 15 15 16 16 16 16 16 17 17 17 17 17 17 17 17 17 16 16 16 16
11 11 11 11 11 11 11 11 11 11 12 12 12 12 12 12 13 13 13 13 13 13 13 14 15 15 15 16 16 16 16 16 16 17 16 17 17 17 16 16 16 16 16
11 11 11 11 11 11 11 11 11 11 11 12 12 12 12 12 12 12 13 13 13 13 13 14 14 15 15 15 15 15 16 16 16 16 16 16 16 16 16 16 16 16 16
12 11 11 11 11 11 11 11 11 11 11 11 11 12 12 12 12 12 12 13 13 13 13 13 14 14 14 15 15 15 15 15 15 16 16 16 16 16 16 16 16 16 15
12 12 11 11 11 11 11 11 11 11 11 11 11 11 11 11 12 12 12 12 12 12 13 13 13 14 14 14 14 15 15 15 15 15 15 15 16 15 15 15 15 15 15
12 12 12 11 11 11 11 11 11 11 11 11 11 11 11 11 11 11 12 12 12 12 12 13 13 13 14 14 14 14 14 15 15 15 15 15 15 15 15 15 15 15 15
13 12 12 12 12 11 11 11 11 11 11 11 11 11 11 11 11 11 11 12 12 12 12 12 13 13 13 14 14 14 14 14 14 14 14 15 15 15 15 15 15 15 15
13 13 12 12 12 12 11 11 11 11 11 11 11 11 11 11 11 11 12 12 12 12 12 12 12 13 13 13 13 13 13 14 14 14 14 14 14 14 14 15 15 15 15
14 13 13 12 12 12 12 11 11 11 11 11 11 11 11 11 11 11 12 12 12 12 12 12 12 13 13 13 13 13 13 13 13 13 13 13 14 14 14 14 14 14 14
14 14 13 13 13 12 12 12 11 11 11 11 11 11 11 11 11 11 11 12 12 12 12 12 12 12 13 13 13 13 13 13 13 13 13 13 13 13 14 14 14 14 14
14 14 14 13 13 13 12 12 12 12 12 12 11 11 11 11 11 11 11 11 12 12 12 12 12 12 12 13 13 12 13 12 12 13 13 13 13 13 13 13 13 13 13
Wind_Speed
3 2 3 3 4 4 3 3 3 4 4 4 4 4 4 4 5 6 8 13 16 16 16 16 15 14 13 12 12 12 12 12 13 13 13 13 13 13 13 13 12 11 11
2 2 3 3 3 4 4 4 4 4 4 4 4 3 4 4 4 4 7 11 17 18 18 17 16 15 14 14 13 13 13 13 14 14 14 13 14 13 13 12 12 11 10
3 2 2 3 3 4 4 3 3 3 4 4 4 4 3 3 3 3 5 8 12 17 18 18 17 16 16 15 14 14 14 14 14 14 14 14 14 14 13 12 12 11 10
5 2 2 3 3 3 2 3 3 3 4 4 3 4 3 2 2 3 5 7 9 11 15 18 18 17 17 16 15 15 15 15 15 15 15 15 14 14 13 13 12 11 10
7 3 2 3 3 2 2 3 2 3 3 4 4 4 4 3 2 3 4 6 8 10 11 16 19 18 18 18 17 17 17 17 17 16 16 16 15 14 14 13 12 12 11
7 5 2 4 3 2 2 2 2 2 3 3 4 4 4 4 3 3 5 4 6 9 11 12 14 16 19 19 19 18 18 18 18 17 17 16 16 15 15 14 13 12 11
6 4 4 4 4 2 3 3 2 2 2 1 1 2 3 4 4 4 4 4 6 8 10 11 12 12 14 19 20 20 20 19 19 19 18 18 17 16 16 15 14 13 12
6 4 4 4 4 3 4 3 1 1 2 1 1 0 2 2 3 5 5 5 6 5 7 11 12 13 13 13 17 21 21 21 21 20 20 19 18 17 17 16 15 14 13
5 4 4 4 4 3 3 3 2 1 2 2 2 2 2 3 2 2 4 5 5 5 6 6 10 13 14 14 15 20 22 23 22 22 21 21 20 19 18 17 16 15 14
5 5 4 4 4 3 3 3 2 1 1 2 1 2 3 2 1 2 2 2 5 6 6 7 8 10 14 14 15 18 22 24 24 23 23 22 21 21 20 19 18 17 16
5 5 4 4 4 3 3 4 3 2 1 2 2 1 1 1 2 2 3 2 2 3 4 5 6 6 12 13 14 18 23 25 25 25 24 23 23 22 21 20 19 18 17
4 5 4 4 4 3 4 3 3 3 2 2 2 2 2 2 2 3 4 3 3 3 3 4 5 6 8 13 16 19 23 25 26 26 25 25 24 23 23 22 21 19 18
3 5 4 4 4 4 4 3 3 3 2 2 2 3 3 4 3 3 3 3 3 3 2 3 5 5 8 10 13 19 22 25 26 26 25 25 25 25 24 23 22 21 20
4 4 5 5 5 4 4 2 2 3 3 3 3 3 3 4 3 4 4 3 3 3 3 4 3 5 6 9 13 17 16 23 26 26 26 25 25 25 25 24 23 22 21
4 5 5 5 5 4 4 3 2 3 3 3 3 4 3 3 3 4 4 4 4 4 4 4 4 3 4 7 11 13 14 19 24 25 26 26 26 25 25 25 24 23 22
4 4 5 4 4 4 4 3 3 3 3 3 3 4 3 3 3 4 4 4 5 5 5 3 4 3 3 4 8 11 13 17 21 23 25 25 26 26 25 25 24 23 22
3 3 4 4 4 4 4 4 3 4 4 4 4 4 4 4 3 4 4 4 5 5 7 5 3 3 4 4 4 6 10 11 14 21 23 25 25 25 25 25 25 24 23
3 3 3 3 4 4 4 3 4 4 4 5 5 5 5 4 3 3 3 4 4 5 6 6 4 4 5 5 5 6 6 9 10 17 22 24 25 25 25 24 24 24 24
3 3 3 4 4 4 4 4 3 4 4 4 5 5 5 4 4 3 3 4 4 4 5 5 5 3 3 3 4 5 5 5 7 12 18 21 23 24 24 24 24 25 25
3 4 4 4 4 4 4 4 4 4 5 5 5 5 5 5 5 5 4 4 4 4 4 4 4 4 3 3 3 4 4 5 6 7 10 14 18 22 23 24 24 25 25
4 4 4 5 5 5 4 4 4 4 5 6 6 6 6 6 7 5 4 4 4 4 4 4 5 4 3 3 4 4 5 4 5 5 6 7 9 10 14 20 23 24 25
4 4 4 5 5 5 7 7 5 4 5 5 7 7 7 6 7 7 8 7 5 5 5 5 5 6 6 5 4 4 5 4 4 4 6 7 7 9 9 12 19 23 25
4 5 5 5 6 8 10 9 7 4 4 5 6 6 6 5 6 4 7 7 7 8 8 6 7 8 6 6 6 6 6 5 5 4 5 5 6 8 7 12 19 23 25
5 5 6 6 6 8 10 9 8 4 4 5 5 5 5 6 6 6 5 5 5 6 6 6 7 8 7 7 7 7 6 4 2 2 4 5 5 5 5 7 16 21 23
6 6 6 6 7 9 10 9 7 3 4 6 6 5 5 5 9 8 5 6 7 6 7 8 9 9 10 10 8 5 5 5 4 4 4 4 3 3 3 5 9 17 20
7 6 7 7 7 8 10 10 7 3 4 5 5 5 7 7 9 8 5 5 7 7 6 6 6 6 6 7 9 9 7 7 4 4 5 5 4 4 3 3 5 8 12
Wind_Direction
278 270 270 271 267 258 243 232 226 228 226 223 225 226 223 223 235 240 234 222 215 207 197 189 184 181 180 180 176 174 169 164 162 160 158 154 151 148 146 144 143 140 137
296 282 283 273 266 258 246 230 226 226 232 228 232 231 233 226 228 237 229 224 216 208 201 195 188 185 184 184 182 179 175 170 167 164 162 159 155 153 153 152 151 148 145
349 317 293 288 281 274 259 247 239 229 233 230 234 240 233 224 211 225 228 222 216 211 207 200 192 188 188 187 185 181 178 175 172 170 168 165 162 161 160 159 158 155 153
2 351 325 304 302 294 267 255 237 233 236 231 233 242 234 223 202 216 229 229 218 213 213 207 197 192 192 190 189 185 183 180 178 176 174 171 169 168 168 167 165 163 161
7 1 331 312 317 310 288 278 250 232 239 240 236 241 233 221 219 224 215 224 219 216 213 212 204 197 196 193 192 190 188 186 184 183 180 177 176 176 175 174 174 172 168
360 1 343 339 338 333 315 298 275 252 237 237 251 249 233 223 212 221 220 217 216 219 216 211 207 204 202 198 195 194 193 191 189 188 186 184 183 182 182 181 180 177 175
353 352 350 345 346 337 311 303 288 277 260 215 240 282 268 230 218 224 219 215 218 216 211 210 206 200 205 205 200 198 198 196 194 192 191 190 190 188 187 187 185 183 183
344 345 348 338 339 338 338 334 328 302 277 188 173 237 301 308 251 229 215 219 223 210 208 211 207 201 200 201 206 203 201 200 198 197 196 195 194 193 193 191 191 191 192
339 338 335 336 342 345 330 322 316 271 270 266 196 183 197 242 283 272 229 228 224 214 211 204 205 206 203 201 203 208 206 202 201 201 200 199 197 197 196 196 197 197 197
338 341 340 342 342 340 329 316 328 286 235 252 263 228 217 189 219 306 297 245 230 221 212 211 208 206 206 204 206 207 208 206 204 204 204 203 201 200 199 200 201 201 201
337 338 341 343 338 331 322 317 326 314 259 224 220 229 242 224 200 210 270 294 282 245 220 215 206 203 205 205 208 211 209 207 207 207 206 206 204 204 203 203 204 204 204
330 332 331 337 331 324 316 314 318 318 292 263 242 217 204 208 206 199 232 257 268 266 244 224 212 207 205 207 214 215 210 209 209 210 209 207 206 206 206 206 207 207 206
316 317 327 326 325 322 317 319 328 324 309 293 268 244 226 222 210 200 217 240 255 273 269 242 221 211 213 207 214 218 214 210 210 210 210 209 208 207 208 208 208 208 208
286 300 317 321 324 327 334 333 330 319 322 305 287 270 249 240 221 208 206 211 251 269 260 253 243 220 218 211 214 212 216 212 210 210 209 208 208 209 208 208 209 209 208
300 317 324 325 331 337 341 346 329 318 319 309 294 283 264 250 235 224 214 204 209 242 258 243 234 229 218 217 215 211 214 214 210 210 210 209 208 208 208 208 208 208 206
319 328 336 338 342 343 343 342 324 318 323 313 300 299 288 268 254 237 224 218 210 218 245 248 234 242 244 242 223 215 215 214 212 211 212 211 210 208 207 207 206 205 204
320 330 332 339 339 340 340 344 330 322 323 316 317 309 295 283 266 252 236 222 216 214 242 258 240 238 228 239 237 225 219 212 214 214 214 214 211 209 208 207 205 203 203
316 323 331 336 329 331 332 330 323 327 320 314 310 311 303 300 283 261 242 237 229 221 227 248 249 232 229 229 225 223 222 216 212 215 214 215 213 209 207 207 205 203 201
313 323 324 323 314 314 317 309 307 311 312 309 306 303 299 301 292 279 258 244 240 239 226 234 247 233 233 225 223 228 224 220 216 218 215 216 214 210 207 206 205 203 201
291 302 300 298 294 299 301 295 301 304 307 306 303 298 294 284 275 274 266 251 243 241 236 238 246 243 236 224 208 217 226 218 220 214 212 211 213 211 208 206 205 203 201
278 283 292 297 297 291 279 276 283 291 301 306 307 303 298 294 287 277 266 253 241 241 240 241 245 244 237 217 217 208 223 221 219 207 204 205 203 209 209 210 208 205 202
278 284 288 288 292 288 292 289 279 277 291 298 302 304 303 297 305 308 301 289 260 238 234 236 242 241 240 227 221 216 217 216 228 200 199 210 198 208 208 205 206 204 201
261 274 280 278 278 282 288 292 287 276 282 289 294 300 306 310 315 303 302 303 294 275 249 231 239 243 238 224 213 219 219 213 219 194 186 212 200 211 207 205 202 201 201
253 261 268 270 272 281 286 289 288 282 283 291 293 294 294 300 302 301 295 293 286 279 266 250 240 246 242 230 218 219 215 216 231 214 187 210 199 207 203 201 202 201 200
253 255 259 263 265 277 282 281 277 272 284 295 299 300 298 294 301 308 302 298 298 291 275 265 256 252 248 242 221 207 200 203 223 217 193 197 192 193 202 211 204 200 199
249 260 265 261 256 264 274 274 263 241 273 288 299 302 304 304 307 309 294 290 293 292 290 292 282 269 255 245 223 212 206 207 206 211 192 184 183 175 195 209 205 198 198
Height
1514 1514 1514 1514 1513 1514 1514 1515 1516 1517 1519 1521 1522 1523 1525 1526 1527 1529 1530 1531 1533 1535 1536 1537 1538 1538 1539 1541 1542 1544 1545 1546 1548 1550 1551 1552 1554 1555 1556 1557 1558 1559 1560
1512 1511 1511 1511 1511 1511 1511 1512 1513 1514 1515 1517 1518 1520 1521 1523 1525 1526 1528 1529 1531 1533 1534 1535 1536 1537 1538 1539 1541 1542 1544 1546 1548 1549 1551 1552 1554 1555 1556 1558 1559 1560 1560
1509 1509 1508 1508 1508 1508 1508 1509 1509 1511 1512 1513 1515 1516 1518 1519 1521 1523 1525 1527 1529 1531 1532 1534 1535 1535 1537 1538 1540 1541 1543 1545 1547 1548 1550 1552 1553 1555 1556 1557 1559 1560 1561
1507 1506 1506 1505 1505 1505 1505 1506 1506 1507 1508 1509 1511 1513 1514 1516 1517 1520 1521 1524 1526 1528 1530 1531 1533 1534 1535 1536 1538 1540 1542 1543 1545 1547 1549 1551 1553 1554 1556 1557 1558 1559 1560
1504 1503 1503 1502 1502 1502 1502 1502 1503 1504 1505 1506 1508 1509 1510 1512 1514 1516 1518 1520 1523 1525 1527 1529 1531 1532 1533 1534 1536 1538 1540 1542 1544 1546 1548 1550 1551 1553 1555 1556 1558 1559 1560
1503 1501 1501 1500 1499 1499 1499 1500 1500 1501 1502 1503 1504 1505 1506 1508 1510 1512 1515 1517 1519 1522 1524 1526 1528 1529 1531 1532 1534 1536 1538 1540 1542 1544 1546 1548 1550 1552 1553 1555 1557 1558 1559
1501 1500 1499 1498 1497 1497 1497 1497 1497 1498 1499 1500 1501 1502 1503 1504 1506 1508 1511 1513 1516 1518 1521 1523 1525 1527 1528 1530 1531 1533 1535 1537 1540 1542 1544 1546 1548 1550 1552 1553 1555 1556 1558
1500 1499 1497 1496 1495 1495 1495 1495 1495 1495 1496 1497 1498 1499 1500 1502 1502 1504 1507 1509 1512 1515 1517 1519 1521 1523 1525 1527 1529 1531 1533 1535 1537 1539 1541 1544 1546 1548 1550 1552 1553 1555 1556
1499 1498 1496 1495 1494 1493 1493 1493 1493 1493 1494 1495 1496 1498 1499 1498 1499 1501 1502 1505 1508 1510 1513 1515 1517 1520 1522 1524 1526 1528 1530 1532 1534 1536 1538 1541 1543 1545 1547 1549 1551 1552 1554
1499 1497 1495 1494 1493 1492 1491 1491 1491 1491 1492 1492 1494 1495 1497 1497 1499 1498 1499 1501 1504 1506 1508 1510 1513 1515 1518 1520 1523 1525 1527 1529 1531 1533 1535 1538 1540 1542 1544 1546 1548 1550 1552
1498 1496 1494 1493 1492 1491 1490 1489 1489 1489 1489 1490 1491 1492 1493 1495 1496 1497 1497 1499 1500 1502 1504 1506 1508 1511 1514 1516 1518 1521 1523 1525 1527 1530 1532 1534 1536 1539 1541 1543 1545 1547 1549
1497 1495 1494 1492 1491 1489 1489 1488 1487 1487 1487 1488 1488 1489 1490 1491 1493 1494 1495 1495 1496 1498 1500 1501 1504 1506 1509 1511 1514 1517 1519 1522 1524 1526 1528 1531 1533 1535 1538 1540 1542 1544 1546
1496 1494 1493 1491 1490 1488 1487 1486 1486 1485 1485 1485 1486 1486 1487 1488 1489 1491 1492 1492 1493 1494 1495 1497 1499 1502 1504 1506 1509 1512 1515 1517 1520 1522 1524 1527 1529 1532 1534 1536 1538 1540 1542
1496 1494 1492 1490 1489 1487 1486 1485 1484 1484 1483 1483 1483 1483 1484 1485 1486 1487 1488 1489 1489 1490 1491 1492 1494 1497 1499 1501 1504 1506 1509 1512 1515 1517 1520 1522 1525 1527 1530 1532 1535 1537 1539
1495 1493 1491 1489 1487 1486 1485 1483 1482 1482 1481 1481 1481 1481 1481 1481 1482 1483 1484 1486 1487 1486 1486 1488 1490 1492 1494 1496 1498 1500 1503 1506 1509 1512 1515 1517 1520 1523 1525 1528 1530 1533 1535
1494 1492 1490 1488 1487 1485 1483 1482 1480 1480 1479 1478 1478 1478 1478 1478 1478 1479 1480 1481 1482 1483 1483 1483 1485 1487 1489 1491 1493 1495 1497 1500 1502 1506 1509 1512 1515 1518 1520 1523 1526 1528 1530
1493 1491 1489 1487 1485 1484 1482 1480 1479 1477 1476 1476 1475 1475 1475 1475 1475 1475 1476 1476 1477 1478 1478 1479 1481 1482 1484 1485 1487 1489 1491 1494 1496 1499 1502 1505 1508 1512 1515 1518 1521 1523 1525
1492 1490 1488 1486 1484 1482 1481 1479 1477 1475 1474 1473 1472 1472 1472 1471 1471 1471 1471 1472 1472 1473 1474 1474 1475 1477 1479 1480 1482 1483 1485 1487 1490 1493 1496 1499 1502 1505 1508 1511 1515 1517 1520
1491 1489 1487 1485 1483 1481 1479 1477 1475 1474 1472 1471 1470 1469 1468 1468 1468 1467 1467 1468 1468 1469 1470 1470 1470 1472 1473 1475 1476 1477 1479 1481 1483 1486 1489 1492 1496 1499 1502 1505 1508 1511 1514
1490 1488 1486 1484 1482 1480 1478 1476 1474 1472 1470 1468 1467 1466 1465 1465 1464 1464 1464 1464 1464 1465 1465 1465 1466 1467 1468 1470 1471 1472 1473 1475 1477 1480 1482 1485 1489 1492 1495 1498 1501 1504 1507
1489 1487 1485 1483 1481 1478 1476 1474 1472 1470 1468 1466 1465 1463 1462 1462 1461 1461 1460 1460 1460 1460 1461 1461 1461 1462 1463 1464 1466 1467 1468 1470 1471 1474 1476 1478 1481 1484 1487 1490 1494 1497 1500
1488 1486 1484 1482 1479 1477 1475 1473 1471 1468 1466 1464 1462 1461 1460 1459 1458 1457 1457 1457 1457 1456 1456 1456 1457 1457 1458 1460 1461 1462 1463 1464 1465 1468 1470 1471 1474 1476 1479 1483 1486 1490 1493
1487 1485 1483 1481 1478 1476 1474 1472 1469 1467 1465 1463 1461 1459 1457 1456 1455 1454 1453 1453 1452 1452 1452 1452 1452 1452 1453 1455 1456 1457 1458 1458 1460 1462 1464 1465 1467 1469 1472 1475 1479 1482 1486
1485 1483 1481 1479 1477 1475 1473 1470 1468 1466 1463 1461 1459 1457 1455 1453 1452 1451 1449 1449 1448 1448 1448 1447 1447 1448 1448 1449 1450 1451 1452 1453 1455 1456 1458 1459 1461 1463 1466 1468 1471 1475 1478
1484 1482 1480 1477 1475 1473 1471 1469 1466 1464 1462 1460 1458 1455 1453 1451 1450 1448 1447 1445 1444 1443 1443 1443 1443 1443 1443 1444 1445 1446 1447 1448 1448 1449 1452 1454 1455 1457 1460 1462 1464 1467 1470
1481 1479 1477 1475 1473 1471 1469 1467 1465 1462 1460 1458 1456 1454 1452 1449 1448 1446 1444 1442 1441 1440 1439 1438 1438 1438 1438 1438 1439 1440 1441 1442 1443 1444 1446 1448 1450 1452 1454 1455 1457 1460 1463